Lapse_Rate
6.0 6.0 6.2 6.1 6.0 6.1 6.2 6.3 6.3 6.4 6.5 6.4 6.5 6.5 6.4 5.8 5.8 5.8 6.0 6.2 5.9 5.7 5.6 5.6 5.4 4.9 4.6 3.8 4.2 5.6 6.0 6.4 6.4 6.2 6.0 6.1 6.3 6.6 6.8 6.9 7.1 7.0 6.8 6.1 5.8 5.9 5.6
6.1 6.0 6.1 6.1 6.3 6.3 6.5 6.5 6.4 6.4 6.2 6.3 6.5 6.9 6.7 6.4 6.0 6.1 6.3 6.6 6.0 5.7 6.0 5.7 5.4 5.1 4.7 3.9 4.3 5.7 6.0 5.9 6.0 6.1 6.2 6.1 6.4 6.8 7.0 7.2 7.0 7.3 7.0 6.1 5.7 5.4 5.3
5.7 5.8 6.0 6.2 6.4 6.5 6.5 6.3 6.2 6.1 6.1 6.5 6.9 6.9 6.8 6.5 6.2 6.3 6.4 6.5 5.9 6.0 6.1 5.9 5.4 5.2 4.8 4.1 4.6 5.5 5.7 5.7 5.8 6.1 6.1 6.2 6.4 6.8 6.9 7.0 7.4 7.1 7.1 6.3 6.3 6.0 5.8
5.6 5.6 6.0 6.3 6.5 6.8 6.9 6.5 6.2 5.9 6.3 6.6 7.0 7.0 6.7 6.5 6.1 5.9 6.5 6.3 6.1 6.0 5.8 5.9 5.4 5.3 4.9 4.4 4.7 5.4 5.5 5.7 5.6 5.4 5.4 5.8 6.1 6.4 6.8 6.6 6.8 6.9 7.0 6.4 6.8 6.1 5.3
5.6 5.7 6.1 6.3 6.4 6.4 6.4 6.4 6.4 6.4 6.4 6.4 6.4 6.7 6.7 6.4 6.4 6.1 6.4 6.5 6.1 5.9 6.2 5.8 5.3 5.3 4.9 4.4 4.5 5.1 4.9 5.7 5.5 5.1 4.8 5.3 5.7 5.4 5.8 5.7 5.8 6.5 6.3 7.1 6.7 6.8 5.3
5.3 5.6 5.6 5.8 6.2 6.5 6.5 6.4 6.8 6.7 6.5 6.8 6.8 6.6 6.4 6.4 6.4 6.4 6.2 6.0 6.1 5.9 6.0 5.8 5.3 5.3 4.8 4.5 4.6 4.9 5.1 4.9 5.4 5.4 5.0 4.9 4.9 4.9 5.0 4.9 6.5 6.1 6.7 7.4 7.2 6.9 6.0
5.2 5.1 5.3 5.4 5.7 5.7 5.8 6.1 6.7 6.6 6.5 6.6 6.6 6.4 6.2 6.3 6.2 6.5 5.9 5.7 6.1 6.0 6.3 5.7 5.4 5.2 4.9 4.4 4.4 4.5 4.6 4.7 4.9 5.0 5.4 5.1 5.0 5.2 5.2 5.3 5.7 5.7 6.2 7.0 5.6 6.1 6.5
4.9 5.1 5.4 5.5 5.6 5.5 5.6 5.8 6.1 6.1 5.9 6.5 6.5 6.4 6.5 6.4 6.1 6.4 5.7 6.0 6.1 6.3 6.5 5.8 5.4 5.2 4.9 4.5 4.4 4.1 4.2 4.3 4.5 4.8 4.6 4.9 5.2 4.9 5.1 5.4 5.3 5.6 5.8 5.6 6.2 6.4 6.0
4.6 4.9 5.3 5.6 5.6 5.7 5.7 5.9 5.9 5.2 5.3 6.0 6.0 6.0 6.5 6.6 6.3 6.2 5.6 5.7 6.0 6.1 6.4 5.9 5.4 5.2 5.0 4.6 4.5 4.4 4.2 4.2 4.4 4.4 4.4 4.7 4.8 5.0 5.0 5.2 5.2 5.3 5.5 5.3 5.3 5.4 5.1
4.8 5.2 5.5 5.7 5.8 6.0 6.2 6.0 5.4 4.8 5.0 5.0 5.5 5.6 6.6 6.7 6.4 5.2 5.5 5.8 5.6 6.1 6.2 5.9 5.3 5.2 5.0 4.6 4.4 4.3 4.2 4.3 4.2 4.3 4.4 4.4 4.7 4.8 4.8 5.2 5.4 5.7 5.4 5.3 5.5 5.2 5.5
5.1 5.3 5.7 5.6 5.7 6.0 5.9 5.6 5.0 4.9 5.0 4.8 5.3 5.5 6.6 6.8 6.5 5.4 5.5 5.5 5.4 6.0 6.0 5.7 5.0 5.1 5.1 4.6 4.4 4.3 4.4 4.4 4.5 4.4 4.4 4.4 4.4 4.7 4.8 5.1 5.4 5.6 5.4 5.4 5.3 5.2 5.4
5.1 5.4 5.6 5.5 5.6 5.4 5.0 4.7 4.7 4.9 5.2 5.4 5.6 5.6 6.4 6.9 6.0 5.2 5.6 5.8 5.7 6.2 5.5 5.6 5.2 5.2 5.2 4.8 4.5 4.4 4.4 4.2 4.3 4.3 4.2 4.3 4.5 4.4 4.3 4.9 5.2 5.7 5.9 5.9 5.4 5.4 5.8
4.8 5.2 5.2 5.1 5.1 4.4 4.7 4.6 5.0 5.5 6.0 5.9 6.0 5.8 6.1 6.4 5.7 5.5 5.9 5.7 5.9 5.8 6.1 5.7 5.4 5.3 5.4 5.0 4.7 4.5 4.4 4.2 4.1 3.9 4.0 3.9 4.3 4.4 4.7 4.8 5.4 5.9 6.1 6.6 6.3 5.9 6.5
4.7 5.1 4.9 5.0 4.4 4.7 5.0 4.8 5.8 7.2 7.0 6.3 6.2 6.1 6.2 6.2 6.2 6.0 5.6 5.5 5.6 5.7 6.0 5.8 5.5 5.3 5.3 5.0 4.6 4.4 4.3 4.2 4.2 4.1 3.8 3.6 3.9 4.0 4.8 5.0 5.8 6.6 6.4 7.7 7.4 7.0 6.9
4.6 4.7 4.7 4.5 4.5 5.2 5.4 5.7 7.0 7.4 7.3 6.7 6.4 6.1 6.2 6.3 6.2 5.7 5.6 5.3 6.1 5.9 5.9 5.6 5.5 5.1 5.3 4.9 4.8 4.4 4.2 3.9 3.9 3.8 3.6 3.5 3.6 3.6 4.3 5.3 5.6 6.6 6.9 7.1 7.2 6.9 7.2
4.6 4.5 4.6 4.4 4.9 5.6 6.3 6.9 7.4 7.4 7.3 6.9 6.3 6.6 6.4 6.2 5.8 5.8 5.2 5.4 6.2 6.0 5.8 5.7 5.3 5.4 5.2 5.0 4.7 4.4 3.9 3.7 3.5 3.6 3.3 3.4 3.2 3.5 4.1 5.2 5.8 6.6 7.0 7.2 7.2 7.4 7.9
4.6 4.5 4.5 4.5 4.8 5.8 6.6 7.2 7.2 7.5 7.4 6.8 6.5 6.5 6.6 6.6 5.8 5.3 4.6 5.3 6.2 6.0 5.7 5.6 5.2 5.2 5.2 4.9 4.6 4.2 3.9 3.4 3.1 3.1 3.1 3.2 3.3 3.5 3.8 4.7 5.9 6.5 6.9 6.6 6.5 6.8 8.2
4.4 4.4 4.6 4.7 4.8 5.5 6.5 7.1 7.6 7.7 7.4 7.2 6.7 6.4 6.3 6.1 5.3 5.1 5.2 5.6 6.2 6.1 5.9 5.4 5.3 5.1 4.9 4.8 4.4 4.0 3.8 3.6 3.2 3.1 2.9 3.0 3.2 3.2 3.7 4.1 5.5 6.4 6.7 6.6 6.7 7.0 6.7
4.4 4.5 4.6 4.8 4.8 5.2 6.8 7.1 7.3 7.6 7.1 7.0 6.3 6.5 6.1 5.3 5.5 5.4 5.6 5.8 6.4 6.1 5.8 5.2 5.1 4.9 4.8 4.6 4.3 4.1 3.8 3.6 3.2 2.9 2.9 2.9 2.9 3.4 3.8 3.9 4.6 5.7 6.4 6.5 6.5 6.6 6.8
4.4 4.5 4.5 4.7 4.9 5.7 7.0 7.4 7.4 7.4 7.0 6.7 6.3 6.1 5.8 5.4 5.3 5.5 5.4 6.1 5.8 6.2 5.7 5.3 5.0 4.7 4.7 4.5 4.4 4.2 3.9 3.6 3.3 3.1 3.0 2.9 2.9 3.0 3.7 3.6 3.8 4.8 5.8 6.1 6.4 6.5 6.4
4.3 4.6 4.5 4.6 5.0 6.1 7.2 7.5 7.2 6.8 6.7 6.4 6.3 5.6 5.5 5.4 5.5 5.3 5.2 6.0 6.5 6.3 5.5 5.3 4.9 4.7 4.5 4.4 4.3 4.2 4.0 3.8 3.5 3.4 3.2 3.0 2.9 2.7 2.8 2.8 3.3 4.4 5.5 6.3 6.4 6.4 6.4
4.4 4.6 4.6 4.6 4.9 6.0 6.6 6.8 6.3 5.9 6.2 6.4 5.8 5.3 5.2 5.2 5.2 5.4 5.5 6.2 6.0 6.2 5.5 5.2 4.9 4.8 4.5 4.3 4.2 4.0 4.0 3.9 3.7 3.5 3.4 3.1 3.2 2.9 2.9 2.9 3.3 4.5 5.8 6.0 6.4 6.5 6.7
4.4 4.7 4.8 4.9 5.4 5.6 5.8 6.3 6.2 5.8 6.1 5.8 5.1 4.9 4.9 5.1 5.3 5.2 5.8 6.1 6.1 5.9 5.5 5.3 5.0 4.7 4.5 4.4 4.3 4.1 4.1 4.0 3.8 3.6 3.6 3.6 3.5 3.2 3.0 3.5 3.8 4.9 5.5 6.2 6.3 6.2 6.3
4.4 4.5 4.8 5.3 5.8 5.9 5.2 5.4 5.3 5.6 5.7 4.9 4.1 4.3 4.9 5.2 5.2 5.5 5.8 5.8 6.1 5.7 5.6 5.2 5.0 4.7 4.7 4.4 4.3 4.1 4.0 4.0 3.8 3.7 3.8 3.7 3.7 3.7 3.5 3.9 5.0 4.6 4.9 5.6 6.2 6.3 6.4
4.3 4.4 4.6 5.4 5.7 5.9 5.8 5.9 6.3 5.8 5.3 4.5 4.1 4.2 4.5 5.0 5.1 5.8 6.0 5.7 6.1 5.3 5.5 5.1 5.0 4.8 4.7 4.4 4.0 3.9 3.8 3.7 3.9 3.8 3.8 3.6 3.8 3.7 3.2 3.8 4.3 4.6 4.9 5.5 6.1 6.6 6.6
4.5 4.4 4.2 5.0 5.3 5.0 5.8 5.9 5.4 5.4 4.9 4.8 5.0 5.1 4.9 5.1 5.4 5.7 5.7 5.6 5.8 5.1 5.3 5.1 5.0 4.8 4.6 4.3 4.1 3.9 3.7 3.9 4.0 3.9 3.8 3.7 3.7 3.7 3.7 3.7 5.2 4.6 4.9 5.5 5.8 6.1 6.9
4.7 4.4 4.3 4.3 4.5 4.4 4.8 4.9 4.9 5.6 5.3 5.1 5.3 5.6 5.1 5.4 5.3 5.6 5.6 5.8 5.8 5.3 5.2 5.1 5.0 4.9 4.6 4.4 4.0 3.9 3.9 4.0 3.8 4.0 4.1 4.0 3.8 3.6 3.4 3.7 4.4 4.8 4.9 4.8 5.2 5.8 6.6
5.0 4.5 4.4 4.2 4.2 4.1 4.2 4.9 5.2 4.9 5.2 5.3 5.2 5.1 5.0 5.5 5.7 5.7 5.7 5.9 6.0 5.6 5.1 5.2 5.0 5.0 4.8 4.5 4.3 4.3 4.1 4.3 4.2 4.3 4.3 4.2 4.1 4.2 4.1 3.6 4.8 5.1 4.8 4.8 5.0 5.6 6.7
5.5 4.5 4.5 4.3 4.4 3.9 4.1 4.6 5.0 4.8 5.2 5.1 4.9 5.1 4.9 5.1 5.6 5.9 5.6 5.6 5.6 5.5 5.1 5.0 5.1 5.0 5.0 4.8 4.6 4.3 4.3 4.3 4.4 4.2 4.4 4.2 4.4 4.7 4.7 4.8 4.9 5.0 5.1 5.1 5.0 4.8 5.1
Wind_Speed
20 21 21 22 22 24 24 25 25 25 25 26 26 24 13 8 8 11 12 10 12 11 7 9 13 12 3 4 6 4 10 9 2 2 4 4 6 4 8 7 7 5 6 3 6 9 15
19 19 20 20 21 21 22 23 24 26 25 23 27 30 13 8 7 11 10 12 11 12 7 6 12 8 3 5 2 6 11 6 3 3 2 4 3 4 2 4 9 7 7 8 12 16 12
21 19 20 19 19 22 23 24 22 23 25 25 27 25 31 9 9 10 9 10 10 13 10 5 9 4 6 9 2 10 8 6 2 3 2 2 4 3 3 4 3 7 7 4 9 9 8
20 20 20 20 19 18 20 23 23 24 25 25 26 25 24 10 8 7 9 11 9 11 11 6 6 2 6 3 9 8 6 4 3 5 3 2 3 4 4 3 4 5 4 4 3 11 5
21 21 20 18 17 17 17 19 23 24 24 25 26 24 24 21 9 7 9 14 11 10 9 4 3 3 8 7 5 6 3 5 9 5 3 3 1 2 5 5 4 6 4 6 5 5 4
25 25 24 22 21 18 17 16 14 21 22 24 25 25 25 28 10 7 12 17 10 4 3 4 2 3 5 2 4 8 3 3 3 7 4 5 3 2 3 5 2 6 6 7 9 4 3
25 26 28 28 26 24 22 20 17 19 21 22 24 27 30 30 11 6 5 3 3 3 3 6 5 2 3 4 3 3 3 5 3 1 3 1 4 4 5 6 8 4 6 8 2 6 1
25 27 27 26 28 27 25 23 20 22 21 20 21 26 31 11 7 1 1 3 1 2 5 9 4 3 4 2 2 4 5 3 2 2 3 4 4 2 6 6 3 3 5 5 2 0 4
26 27 28 28 28 28 27 25 22 21 22 19 18 21 20 6 3 1 3 2 5 4 4 2 4 3 2 5 1 3 4 2 2 2 2 5 1 5 6 3 2 1 2 4 1 3 7
27 28 29 28 29 29 28 25 24 22 22 18 15 18 17 5 3 1 2 2 5 2 1 3 4 2 4 3 1 1 3 3 3 2 2 4 3 3 5 5 5 2 2 4 6 7 2
29 30 30 30 31 30 30 28 26 24 23 20 16 16 18 6 3 2 3 6 4 1 1 3 3 1 2 2 2 2 1 2 2 1 2 1 2 2 5 4 5 3 3 3 6 2 3
31 32 32 32 33 32 31 29 26 26 25 20 16 15 15 2 2 3 4 4 1 2 2 2 2 3 3 1 2 0 3 1 2 1 3 4 2 3 4 5 2 2 4 5 4 3 4
31 32 33 33 33 34 33 31 26 24 24 19 14 16 15 5 3 4 5 2 2 1 0 2 2 3 2 2 1 1 0 2 2 2 2 2 3 3 2 5 3 6 6 3 4 3 3
31 33 33 34 37 33 32 30 27 20 20 14 15 24 10 8 5 5 4 3 3 1 3 1 2 4 3 5 1 1 2 1 0 1 1 3 1 2 2 2 3 8 4 3 5 4 2
30 31 32 34 32 30 30 29 22 16 11 8 14 3 5 4 5 4 5 2 3 3 1 3 3 4 4 3 1 2 0 1 1 3 3 3 1 2 3 4 2 1 6 3 1 1 3
29 31 31 32 28 27 29 25 15 6 3 8 3 3 2 4 3 2 2 2 3 4 2 2 1 2 3 4 4 3 1 2 2 2 3 1 4 1 2 2 2 3 2 2 3 5 5
28 29 29 28 22 21 25 21 11 6 9 9 1 1 2 4 2 2 2 3 2 3 4 3 0 2 1 2 3 2 2 2 4 2 2 0 2 1 3 2 5 1 3 3 2 4 2
26 28 28 26 19 16 19 16 13 10 14 3 1 2 4 3 2 2 2 3 1 2 3 2 1 0 2 4 3 2 2 3 6 2 1 2 2 3 5 3 4 1 3 5 4 3 0
25 26 26 25 16 7 13 17 14 10 11 2 2 2 3 2 2 3 1 2 2 1 3 1 1 1 1 3 1 1 2 2 7 3 2 2 1 3 1 3 6 4 4 2 4 3 4
22 23 25 22 18 10 10 9 15 9 9 2 2 1 2 1 3 2 4 4 2 1 2 1 2 1 2 2 2 3 3 3 3 3 6 1 2 2 5 4 3 5 5 4 4 2 5
20 21 23 22 20 15 10 18 7 8 6 2 1 1 1 3 2 3 4 3 1 3 2 1 1 2 2 2 2 2 2 2 4 4 3 2 1 2 6 6 8 9 9 7 5 6 3
19 18 20 21 18 15 11 11 4 3 2 2 0 2 1 0 5 3 1 1 1 2 1 1 2 3 1 1 2 2 3 1 2 3 3 3 1 0 2 5 4 4 6 8 10 10 10
19 18 18 19 16 15 7 7 4 9 10 1 2 1 1 2 4 3 2 2 2 2 3 5 1 3 3 4 6 7 8 7 4 1 2 2 2 2 3 7 2 2 4 2 0 0 4
19 17 16 17 15 13 11 4 1 6 4 1 1 3 2 0 4 6 1 4 0 1 3 4 4 1 4 12 11 10 11 10 8 8 4 3 2 0 2 4 1 2 4 2 5 4 2
19 16 15 17 13 13 14 7 6 6 5 2 2 3 3 2 6 5 5 2 6 5 4 3 5 2 11 1 2 3 2 1 4 6 4 2 0 1 2 2 3 3 2 2 2 3 1
19 17 16 14 14 12 12 11 11 12 14 6 5 3 1 5 1 3 3 4 3 3 3 3 5 6 2 1 1 2 2 1 3 1 2 1 2 2 1 1 1 4 2 1 3 4 2
20 18 16 15 14 13 12 15 13 19 27 10 3 13 2 3 2 1 2 1 3 3 3 4 5 3 2 1 2 3 1 0 3 4 5 2 2 3 3 3 4 4 1 4 3 4 5
20 19 16 15 14 15 13 14 12 16 20 10 5 8 3 2 2 1 2 1 1 2 3 5 4 2 3 4 2 2 3 3 3 2 4 5 6 3 3 3 2 5 4 4 3 2 1
18 22 18 17 13 14 14 13 9 7 6 4 4 4 3 4 3 1 2 2 2 2 3 3 2 3 4 3 2 2 3 2 2 2 4 4 3 2 5 1 2 3 1 1 2 1 1
Wind_Direction
350 346 344 341 343 346 347 349 344 343 343 343 338 334 260 249 285 296 304 307 300 295 318 326 310 325 319 279 258 313 317 311 211 299 336 329 272 251 195 191 180 198 158 93 17 360 340
342 340 339 340 341 345 342 342 343 347 339 339 338 341 289 219 253 281 296 300 301 294 305 319 304 319 264 277 104 315 321 289 262 255 315 309 322 307 316 219 214 140 126 97 43 17 2
335 331 331 332 336 340 339 338 340 342 339 339 339 339 346 213 247 277 294 300 303 297 299 306 298 288 259 259 319 323 307 284 223 227 231 225 291 303 175 178 173 165 187 68 48 20 10
326 326 324 327 329 330 332 334 337 337 337 339 338 339 342 245 244 272 297 295 292 284 287 295 292 242 261 255 300 290 311 315 266 263 262 276 3 289 290 137 180 176 164 210 65 6 2
323 321 318 317 316 319 321 324 326 330 332 336 337 336 338 338 274 286 294 291 281 267 279 258 174 231 274 312 277 328 305 313 305 239 232 247 225 292 161 193 164 199 192 200 261 66 307
327 323 320 310 308 303 301 307 315 316 324 331 333 332 329 331 258 282 294 291 281 263 175 124 107 265 247 258 312 314 295 289 274 296 227 209 192 243 270 255 263 201 184 195 205 154 255
331 330 328 327 323 311 303 303 305 306 316 326 332 330 322 312 239 267 313 325 196 170 189 215 169 270 273 287 275 244 344 301 269 207 268 213 206 196 289 309 307 295 290 203 154 171 222
333 330 325 320 320 320 312 303 305 302 309 322 331 332 323 299 195 240 264 244 43 23 279 225 181 244 269 274 289 275 325 276 306 272 292 238 238 180 307 282 265 182 148 117 123 29 223
330 330 326 326 324 321 321 315 305 300 301 312 325 332 348 45 38 261 231 242 142 182 259 145 180 197 177 207 211 279 329 310 355 263 311 265 51 309 275 249 197 118 96 143 50 175 261
331 327 326 325 323 322 321 319 317 303 299 301 309 323 333 324 289 285 233 198 168 199 306 138 162 143 150 183 217 291 300 302 194 240 289 264 316 298 285 276 296 214 195 172 151 163 288
329 328 328 329 326 324 320 313 308 307 299 294 295 308 309 274 312 236 336 180 150 222 298 93 123 82 141 228 111 165 282 258 249 266 244 39 333 292 254 294 317 5 309 211 188 213 277
331 331 331 331 325 321 316 311 305 303 293 288 285 292 297 245 216 234 253 191 140 224 247 126 110 177 170 143 141 245 219 246 355 246 304 312 309 287 324 310 314 183 154 113 146 236 269
331 330 330 328 323 318 311 305 299 297 293 291 292 288 274 238 208 182 216 212 119 218 270 163 166 196 177 146 154 1 312 184 273 248 32 299 298 306 277 284 211 228 210 173 206 212 247
328 332 331 328 325 322 321 310 298 291 301 302 306 304 208 183 162 151 214 193 198 76 242 46 114 149 172 162 142 161 243 212 267 5 73 12 125 331 350 285 307 234 269 257 215 206 203
330 330 331 331 335 341 338 332 308 293 308 308 324 336 125 142 143 178 219 201 139 177 261 172 145 209 158 160 266 210 4 30 345 233 352 342 155 302 300 309 321 222 231 355 66 26 243
329 330 332 338 343 344 342 343 334 348 304 355 332 333 43 89 137 219 211 209 131 166 165 178 263 268 174 164 204 207 186 35 13 301 315 67 302 86 340 277 185 290 43 207 184 207 218
327 329 333 340 344 349 356 3 28 47 5 343 327 334 113 101 61 197 199 203 165 211 188 188 200 189 167 163 210 160 114 88 357 10 227 224 320 88 263 20 358 355 283 268 342 329 266
322 330 334 340 342 356 3 359 358 21 356 8 352 336 109 146 104 201 199 199 224 108 162 158 156 135 183 160 175 159 132 44 349 316 46 17 283 295 330 350 339 357 83 4 312 149 13
324 327 334 340 340 345 8 349 344 359 22 344 16 330 82 324 134 180 245 263 312 137 136 120 170 316 127 167 219 138 129 68 15 40 42 8 85 298 212 131 61 55 55 94 266 265 216
319 322 330 338 337 313 343 328 302 331 1 31 334 308 81 199 306 155 200 235 156 203 98 122 123 147 160 141 39 145 142 56 26 63 29 248 88 270 286 332 349 296 305 355 346 292 344
319 320 325 334 339 335 353 330 245 277 321 6 61 351 267 167 270 195 224 340 184 104 67 172 133 233 200 152 141 124 139 141 73 5 41 52 109 322 292 300 275 260 276 261 262 274 284
315 319 318 329 336 336 18 353 215 235 241 209 262 307 347 34 135 142 282 338 264 107 83 107 247 124 104 98 20 175 160 217 43 61 52 5 114 34 275 348 334 252 257 248 254 266 270
311 310 312 323 330 338 354 5 32 331 205 181 184 165 224 151 142 183 250 208 348 149 67 49 343 131 108 62 80 70 74 76 85 62 82 48 112 334 36 3 320 139 30 28 98 4 300
303 303 305 311 320 333 326 0 53 76 203 112 8 85 310 325 210 219 325 225 73 50 86 38 24 55 109 125 108 84 74 78 72 56 33 120 109 212 337 312 73 75 16 49 120 115 8
297 298 298 302 311 315 315 296 286 284 243 186 134 129 268 301 216 239 208 143 111 64 69 63 3 360 150 152 114 126 105 102 61 32 30 33 144 74 332 323 334 129 144 242 276 156 47
288 290 291 299 302 299 301 298 283 274 267 253 230 143 238 308 133 354 197 195 154 103 104 62 41 117 336 41 165 231 242 91 181 167 356 96 72 287 182 289 266 112 154 286 223 222 154
279 285 285 292 294 289 298 301 295 286 273 227 158 178 197 255 91 329 238 210 111 98 99 135 165 181 322 207 232 232 215 280 214 198 186 184 215 226 204 258 264 210 302 152 233 75 149
272 278 282 283 287 286 291 299 310 351 126 132 118 151 209 136 77 348 335 210 134 174 162 139 143 174 163 215 226 190 224 189 216 181 195 196 173 188 166 223 261 163 152 234 43 163 146
259 273 277 279 276 275 283 296 320 24 203 103 110 138 129 82 86 69 78 53 299 324 124 172 350 159 161 161 203 141 193 192 238 248 199 229 235 224 221 231 116 162 257 166 174 262 47